Time,TemperatureF,DewpointF,PressureIn,WindDirection,WindDirectionDegrees,WindSpeedMPH,WindSpeedGustMPH,Humidity,HourlyPrecipIn,Conditions,Clouds,dailyrainin,SolarRadiationWatts/m^2,SoftwareType,DateUTC
2013-01-17 00:02:00,43.0,-3.0,-100.00,NNW,342,2.0,11.0,14,0.00,,,0.00,0.000000,,2013-01-17 08:02:00,
2013-01-17 00:12:00,43.0,-3.0,-100.00,NNW,342,2.0,11.0,14,0.00,,,0.00,0.000000,,2013-01-17 08:12:00,
2013-01-17 00:22:00,43.0,-3.0,-100.00,NNW,342,2.0,11.0,14,0.00,,,0.00,0.000000,,2013-01-17 08:22:00,
2013-01-17 00:32:00,46.0,-2.0,-100.00,WSW,253,1.0,16.0,13,0.00,,,0.00,0.000000,,2013-01-17 08:32:00,
2013-01-17 00:53:00,46.0,-2.0,-100.00,WSW,253,1.0,16.0,13,0.00,,,0.00,0.000000,,2013-01-17 08:53:00,
2013-01-17 01:02:00,46.0,-2.0,-100.00,WSW,253,1.0,16.0,13,0.00,,,0.00,0.000000,,2013-01-17 09:02:00,
2013-01-17 01:12:00,46.0,-2.0,-100.00,WSW,253,1.0,16.0,13,0.00,,,0.00,0.000000,,2013-01-17 09:12:00,
2013-01-17 01:22:00,46.0,-2.0,-100.00,WSW,253,1.0,16.0,13,0.00,,,0.00,0.000000,,2013-01-17 09:22:00,
2013-01-17 01:32:00,46.0,-2.0,-100.00,WSW,249,2.0,9.0,13,0.00,,,0.00,0.000000,,2013-01-17 09:32:00,
2013-01-17 01:52:00,46.0,-2.0,-100.00,WSW,249,2.0,9.0,13,0.00,,,0.00,0.000000,,2013-01-17 09:52:00,
2013-01-17 02:02:00,46.0,-2.0,-100.00,WSW,249,2.0,9.0,13,0.00,,,0.00,0.000000,,2013-01-17 10:02:00,
2013-01-17 02:12:00,46.0,-2.0,-100.00,WSW,249,2.0,9.0,13,0.00,,,0.00,0.000000,,2013-01-17 10:12:00,
2013-01-17 02:22:00,46.0,-2.0,-100.00,WSW,249,2.0,9.0,13,0.00,,,0.00,0.000000,,2013-01-17 10:22:00,
2013-01-17 02:32:00,47.0,-9.0,-100.00,NW,319,5.0,27.0,9,0.00,,,-99.99,0.000000,,2013-01-17 10:32:00,
2013-01-17 02:53:00,47.0,-9.0,-100.00,NW,319,5.0,27.0,9,0.00,,,-99.99,0.000000,,2013-01-17 10:53:00,
2013-01-17 03:02:00,47.0,-9.0,-100.00,NW,319,5.0,27.0,9,0.00,,,-99.99,0.000000,,2013-01-17 11:02:00,
2013-01-17 03:12:00,47.0,-9.0,-100.00,NW,319,5.0,27.0,9,0.00,,,-99.99,0.000000,,2013-01-17 11:12:00,
2013-01-17 03:22:00,47.0,-9.0,-100.00,NW,319,5.0,27.0,9,0.00,,,-99.99,0.000000,,2013-01-17 11:22:00,
2013-01-17 03:53:00,47.0,-7.0,-100.00,WSW,237,4.0,19.0,10,0.00,,,0.00,0.000000,,2013-01-17 11:53:00,
2013-01-17 04:02:00,47.0,-7.0,-100.00,WSW,237,4.0,19.0,10,0.00,,,0.00,0.000000,,2013-01-17 12:02:00,
2013-01-17 04:53:00,48.0,-10.0,-100.00,North,352,5.0,21.0,8,-99.99,,,0.00,0.000000,,2013-01-17 12:53:00,
2013-01-17 05:03:00,48.0,-10.0,-100.00,North,352,5.0,21.0,8,-99.99,,,0.00,0.000000,,2013-01-17 13:03:00,
2013-01-17 05:32:00,43.0,-12.0,-100.00,East,98,2.0,21.0,9,-99.99,,,0.00,0.000000,,2013-01-17 13:32:00,
2013-01-17 05:53:00,43.0,-12.0,-100.00,East,98,2.0,21.0,9,-99.99,,,0.00,0.000000,,2013-01-17 13:53:00,
2013-01-17 06:03:00,43.0,-12.0,-100.00,East,98,2.0,21.0,9,-99.99,,,0.00,0.000000,,2013-01-17 14:03:00,
2013-01-17 06:12:00,43.0,-12.0,-100.00,East,98,2.0,21.0,9,-99.99,,,0.00,0.000000,,2013-01-17 14:12:00,
2013-01-17 06:23:00,43.0,-12.0,-100.00,East,98,2.0,21.0,9,-99.99,,,0.00,0.000000,,2013-01-17 14:23:00,
2013-01-17 06:32:00,45.0,-13.0,-100.00,NNW,344,3.0,10.0,8,0.00,,,0.00,0.000000,,2013-01-17 14:32:00,
2013-01-17 06:53:00,45.0,-13.0,-100.00,NNW,344,3.0,10.0,8,0.00,,,0.00,0.000000,,2013-01-17 14:53:00,
2013-01-17 07:03:00,45.0,-13.0,-100.00,NNW,344,3.0,10.0,8,0.00,,,0.00,0.000000,,2013-01-17 15:03:00,
2013-01-17 07:12:00,45.0,-13.0,-100.00,NNW,344,3.0,10.0,8,0.00,,,0.00,0.000000,,2013-01-17 15:12:00,
2013-01-17 07:22:00,45.0,-13.0,-100.00,NNW,344,3.0,10.0,8,0.00,,,0.00,0.000000,,2013-01-17 15:22:00,
2013-01-17 07:53:00,49.0,-12.0,-100.00,ESE,109,7.0,33.0,7,0.00,,,0.00,14.000000,,2013-01-17 15:53:00,
2013-01-17 08:02:00,49.0,-12.0,-100.00,ESE,109,7.0,33.0,7,0.00,,,0.00,14.000000,,2013-01-17 16:02:00,
2013-01-17 08:53:00,52.0,-13.0,-100.00,NNE,30,6.0,30.0,6,0.00,,,0.00,181.000000,,2013-01-17 16:53:00,
2013-01-17 09:02:00,52.0,-13.0,-100.00,NNE,30,6.0,30.0,6,0.00,,,0.00,181.000000,,2013-01-17 17:02:00,
2013-01-17 09:32:00,51.0,-4.0,-100.00,SE,128,2.0,22.0,10,0.00,,,-99.99,406.000000,,2013-01-17 17:32:00,
2013-01-17 09:53:00,51.0,-4.0,-100.00,SE,128,2.0,22.0,10,0.00,,,-99.99,406.000000,,2013-01-17 17:53:00,
2013-01-17 10:03:00,51.0,-4.0,-100.00,SE,128,2.0,22.0,10,0.00,,,-99.99,406.000000,,2013-01-17 18:03:00,
2013-01-17 10:12:00,51.0,-4.0,-100.00,SE,128,2.0,22.0,10,0.00,,,-99.99,406.000000,,2013-01-17 18:12:00,
2013-01-17 10:22:00,51.0,-4.0,-100.00,SE,128,2.0,22.0,10,0.00,,,-99.99,406.000000,,2013-01-17 18:22:00,
2013-01-17 10:32:00,51.0,-4.0,-100.00,SSE,167,6.0,9.0,10,0.00,,,0.00,569.000000,,2013-01-17 18:32:00,
2013-01-17 10:53:00,51.0,-4.0,-100.00,SSE,167,6.0,9.0,10,0.00,,,0.00,569.000000,,2013-01-17 18:53:00,
2013-01-17 11:03:00,51.0,-4.0,-100.00,SSE,167,6.0,9.0,10,0.00,,,0.00,569.000000,,2013-01-17 19:03:00,
2013-01-17 11:12:00,51.0,-4.0,-100.00,SSE,167,6.0,9.0,10,0.00,,,0.00,569.000000,,2013-01-17 19:12:00,
2013-01-17 11:22:00,51.0,-4.0,-100.00,SSE,167,6.0,9.0,10,0.00,,,0.00,569.000000,,2013-01-17 19:22:00,
2013-01-17 11:32:00,49.0,-3.0,-100.00,SSE,166,6.0,11.0,11,0.00,,,0.00,680.000000,,2013-01-17 19:32:00,
2013-01-17 11:53:00,49.0,-3.0,-100.00,SSE,166,6.0,11.0,11,0.00,,,0.00,680.000000,,2013-01-17 19:53:00,
2013-01-17 12:02:00,49.0,-3.0,-100.00,SSE,166,6.0,11.0,11,0.00,,,0.00,680.000000,,2013-01-17 20:02:00,
2013-01-17 12:12:00,49.0,-3.0,-100.00,SSE,166,6.0,11.0,11,0.00,,,0.00,680.000000,,2013-01-17 20:12:00,
2013-01-17 12:22:00,49.0,-3.0,-100.00,SSE,166,6.0,11.0,11,0.00,,,0.00,680.000000,,2013-01-17 20:22:00,
2013-01-17 12:32:00,56.0,-4.0,-100.00,ESE,113,3.0,11.0,8,0.00,,,0.00,723.000000,,2013-01-17 20:32:00,
2013-01-17 12:54:00,56.0,-4.0,-100.00,ESE,113,3.0,11.0,8,0.00,,,0.00,723.000000,,2013-01-17 20:54:00,
2013-01-17 13:02:00,56.0,-4.0,-100.00,ESE,113,3.0,11.0,8,0.00,,,0.00,723.000000,,2013-01-17 21:02:00,
2013-01-17 13:12:00,56.0,-4.0,-100.00,ESE,113,3.0,11.0,8,0.00,,,0.00,723.000000,,2013-01-17 21:12:00,
2013-01-17 13:22:00,56.0,-4.0,-100.00,ESE,113,3.0,11.0,8,0.00,,,0.00,723.000000,,2013-01-17 21:22:00,
2013-01-17 13:32:00,53.0,0.0,-100.00,SSE,152,6.0,16.0,11,0.00,,,0.00,532.000000,,2013-01-17 21:32:00,
2013-01-17 13:53:00,53.0,0.0,-100.00,SSE,152,6.0,16.0,11,0.00,,,0.00,532.000000,,2013-01-17 21:53:00,
2013-01-17 14:03:00,53.0,0.0,-100.00,SSE,152,6.0,16.0,11,0.00,,,0.00,532.000000,,2013-01-17 22:03:00,
2013-01-17 14:12:00,53.0,0.0,-100.00,SSE,152,6.0,16.0,11,0.00,,,0.00,532.000000,,2013-01-17 22:12:00,
2013-01-17 14:22:00,53.0,0.0,-100.00,SSE,152,6.0,16.0,11,0.00,,,0.00,532.000000,,2013-01-17 22:22:00,
2013-01-17 14:32:00,56.0,-2.0,-100.00,NNW,332,2.0,9.0,9,0.00,,,0.00,451.000000,,2013-01-17 22:32:00,
2013-01-17 14:52:00,56.0,-2.0,-100.00,NNW,332,2.0,9.0,9,0.00,,,0.00,451.000000,,2013-01-17 22:52:00,
2013-01-17 15:02:00,56.0,-2.0,-100.00,NNW,332,2.0,9.0,9,0.00,,,0.00,451.000000,,2013-01-17 23:02:00,
2013-01-17 15:12:00,56.0,-2.0,-100.00,NNW,332,2.0,9.0,9,0.00,,,0.00,451.000000,,2013-01-17 23:12:00,
2013-01-17 15:22:00,56.0,-2.0,-100.00,NNW,332,2.0,9.0,9,0.00,,,0.00,451.000000,,2013-01-17 23:22:00,
2013-01-17 15:32:00,51.0,-8.0,-100.00,NNW,331,0.0,9.0,8,0.00,,,0.00,286.000000,,2013-01-17 23:32:00,
2013-01-17 15:53:00,51.0,-8.0,-100.00,NNW,331,0.0,9.0,8,0.00,,,0.00,286.000000,,2013-01-17 23:53:00,
2013-01-17 16:02:00,51.0,-8.0,-100.00,NNW,331,0.0,9.0,8,0.00,,,0.00,286.000000,,2013-01-18 00:02:00,
2013-01-17 16:12:00,51.0,-8.0,-100.00,NNW,331,0.0,9.0,8,0.00,,,0.00,286.000000,,2013-01-18 00:12:00,
2013-01-17 16:23:00,51.0,-8.0,-100.00,NNW,331,0.0,9.0,8,0.00,,,0.00,286.000000,,2013-01-18 00:23:00,
2013-01-17 16:32:00,47.0,-3.0,-100.00,South,185,4.0,7.0,12,0.00,,,0.00,17.000000,,2013-01-18 00:32:00,
2013-01-17 16:53:00,47.0,-3.0,-100.00,South,185,4.0,7.0,12,0.00,,,0.00,17.000000,,2013-01-18 00:53:00,
2013-01-17 17:02:00,47.0,-3.0,-100.00,South,185,4.0,7.0,12,0.00,,,0.00,17.000000,,2013-01-18 01:02:00,
2013-01-17 17:12:00,47.0,-3.0,-100.00,South,185,4.0,7.0,12,0.00,,,0.00,17.000000,,2013-01-18 01:12:00,
2013-01-17 17:22:00,47.0,-3.0,-100.00,South,185,4.0,7.0,12,0.00,,,0.00,17.000000,,2013-01-18 01:22:00,
2013-01-17 17:32:00,45.0,-8.0,-100.00,NE,34,0.0,6.0,10,0.00,,,0.00,5.000000,,2013-01-18 01:32:00,
2013-01-17 17:53:00,45.0,-8.0,-100.00,NE,34,0.0,6.0,10,0.00,,,0.00,5.000000,,2013-01-18 01:53:00,
2013-01-17 18:02:00,45.0,-8.0,-100.00,NE,34,0.0,6.0,10,0.00,,,0.00,5.000000,,2013-01-18 02:02:00,
2013-01-17 18:12:00,45.0,-8.0,-100.00,NE,34,0.0,6.0,10,0.00,,,0.00,5.000000,,2013-01-18 02:12:00,
2013-01-17 18:22:00,45.0,-8.0,-100.00,NE,34,0.0,6.0,10,0.00,,,0.00,5.000000,,2013-01-18 02:22:00,
2013-01-17 18:32:00,47.0,-9.0,-100.00,WNW,298,0.0,5.0,9,0.00,,,0.00,0.000000,,2013-01-18 02:32:00,
2013-01-17 18:53:00,47.0,-9.0,-100.00,WNW,298,0.0,5.0,9,0.00,,,0.00,0.000000,,2013-01-18 02:53:00,
2013-01-17 19:02:00,47.0,-9.0,-100.00,WNW,298,0.0,5.0,9,0.00,,,0.00,0.000000,,2013-01-18 03:02:00,
2013-01-17 19:12:00,47.0,-9.0,-100.00,WNW,298,0.0,5.0,9,0.00,,,0.00,0.000000,,2013-01-18 03:12:00,
2013-01-17 19:22:00,47.0,-9.0,-100.00,WNW,298,0.0,5.0,9,0.00,,,0.00,0.000000,,2013-01-18 03:22:00,
2013-01-17 19:32:00,46.0,-12.0,-100.00,North,2,1.0,7.0,8,0.00,,,-99.99,0.000000,,2013-01-18 03:32:00,
2013-01-17 19:53:00,46.0,-12.0,-100.00,North,2,1.0,7.0,8,0.00,,,-99.99,0.000000,,2013-01-18 03:53:00,
2013-01-17 20:02:00,46.0,-12.0,-100.00,North,2,1.0,7.0,8,0.00,,,-99.99,0.000000,,2013-01-18 04:02:00,
2013-01-17 20:12:00,46.0,-12.0,-100.00,North,2,1.0,7.0,8,0.00,,,-99.99,0.000000,,2013-01-18 04:12:00,
2013-01-17 20:22:00,46.0,-12.0,-100.00,North,2,1.0,7.0,8,0.00,,,-99.99,0.000000,,2013-01-18 04:22:00,
2013-01-17 20:32:00,44.0,-7.0,-100.00,WSW,239,6.0,9.0,11,0.00,,,0.00,0.000000,,2013-01-18 04:32:00,
2013-01-17 20:53:00,44.0,-7.0,-100.00,WSW,239,6.0,9.0,11,0.00,,,0.00,0.000000,,2013-01-18 04:53:00,
2013-01-17 21:03:00,44.0,-7.0,-100.00,WSW,239,6.0,9.0,11,0.00,,,0.00,0.000000,,2013-01-18 05:03:00,
2013-01-17 21:12:00,44.0,-7.0,-100.00,WSW,239,6.0,9.0,11,0.00,,,0.00,0.000000,,2013-01-18 05:12:00,
2013-01-17 21:22:00,44.0,-7.0,-100.00,WSW,239,6.0,9.0,11,0.00,,,0.00,0.000000,,2013-01-18 05:22:00,
2013-01-17 21:32:00,46.0,-7.0,-100.00,SW,231,1.0,9.0,10,0.00,,,0.00,0.000000,,2013-01-18 05:32:00,
2013-01-17 21:53:00,46.0,-7.0,-100.00,SW,231,1.0,9.0,10,0.00,,,0.00,0.000000,,2013-01-18 05:53:00,
2013-01-17 22:02:00,46.0,-7.0,-100.00,SW,231,1.0,9.0,10,0.00,,,0.00,0.000000,,2013-01-18 06:02:00,
2013-01-17 22:12:00,46.0,-7.0,-100.00,SW,231,1.0,9.0,10,0.00,,,0.00,0.000000,,2013-01-18 06:12:00,
2013-01-17 22:22:00,46.0,-7.0,-100.00,SW,231,1.0,9.0,10,0.00,,,0.00,0.000000,,2013-01-18 06:22:00,
2013-01-17 22:32:00,47.0,-9.0,-100.00,NW,318,1.0,7.0,9,0.00,,,0.00,0.000000,,2013-01-18 06:32:00,
2013-01-17 22:52:00,47.0,-9.0,-100.00,NW,318,1.0,7.0,9,0.00,,,0.00,0.000000,,2013-01-18 06:52:00,
2013-01-17 23:02:00,47.0,-9.0,-100.00,NW,318,1.0,7.0,9,0.00,,,0.00,0.000000,,2013-01-18 07:02:00,
2013-01-17 23:12:00,47.0,-9.0,-100.00,NW,318,1.0,7.0,9,0.00,,,0.00,0.000000,,2013-01-18 07:12:00,
2013-01-17 23:22:00,47.0,-9.0,-100.00,NW,318,1.0,7.0,9,0.00,,,0.00,0.000000,,2013-01-18 07:22:00,
2013-01-17 23:32:00,45.0,-8.0,-100.00,SW,219,0.0,9.0,10,0.00,,,0.00,0.000000,,2013-01-18 07:32:00,
2013-01-17 23:52:00,45.0,-8.0,-100.00,SW,219,0.0,9.0,10,0.00,,,0.00,0.000000,,2013-01-18 07:52:00,